Tracking 19636 objects as of 24-May-2019
HD Live streaming from Space Station
objects crossing your sky now

SL-14 R/B

Track SL-14 R/B now!
10-day predictions
SL-14 R/B is classified as:


NORAD ID: 20511
Int'l Code: 1990-018B
Perigee: 624.9 km
Apogee: 648.0 km
Inclination: 82.5 °
Period: 97.3 minutes
Semi major axis: 7007 km
RCS: 4.7836 m2 (large)
Launch date: February 28, 1990
Source: Commonwealth of Independent States (former USSR) (CIS)
Launch site: PLESETSK MISSILE AND SPACE COMPLEX (PKMTR)

Note: This is a ROCKET BODY
aabbcc
Your satellite tracking list
Your tracking list is empty




NASA's NSSDC Master Catalog

Two Line Element Set (TLE):
1 20511U 90018B   19143.75562598  .00000045  00000-0  29395-5 0  9994
2 20511  82.5245  17.0306 0016516 323.6284 101.6700 14.80012274576429
Source of the keplerian elements: AFSPC